Time,TemperatureF,DewpointF,PressureIn,WindDirection,WindDirectionDegrees,WindSpeedMPH,WindSpeedGustMPH,Humidity,HourlyPrecipIn,Conditions,Clouds,dailyrainin,SoftwareType,DateUTC
2013-08-26 00:01:00,73.0,66.9,29.88,South,180,0.0,0.0,81,0.00,,,0.00,WUHU21623XXSP,2013-08-26 05:01:00,
2013-08-26 00:06:00,72.5,66.7,29.88,South,180,0.0,0.0,82,0.00,,,0.00,WUHU21623XXSP,2013-08-26 05:06:00,
2013-08-26 00:11:00,72.5,66.7,29.89,South,180,0.0,0.0,82,0.00,,,0.00,WUHU21623XXSP,2013-08-26 05:11:00,
2013-08-26 00:16:00,72.5,66.7,29.89,South,180,0.0,0.0,82,0.00,,,0.00,WUHU21623XXSP,2013-08-26 05:16:00,
2013-08-26 00:21:00,72.3,66.5,29.89,South,180,0.0,0.0,82,0.00,,,0.00,WUHU21623XXSP,2013-08-26 05:21:00,
2013-08-26 00:26:00,72.3,66.5,29.90,South,180,0.0,0.0,82,0.00,,,0.00,WUHU21623XXSP,2013-08-26 05:26:00,
2013-08-26 00:31:00,72.3,66.5,29.90,SSE,157,0.0,0.0,82,0.00,,,0.00,WUHU21623XXSP,2013-08-26 05:31:00,
2013-08-26 00:36:00,72.3,66.6,29.89,South,180,0.0,1.1,82,0.00,,,0.00,WUHU21623XXSP,2013-08-26 05:36:00,
2013-08-26 00:41:00,72.3,66.5,29.89,South,180,0.0,1.1,82,0.00,,,0.00,WUHU21623XXSP,2013-08-26 05:41:00,
2013-08-26 00:46:00,72.1,66.3,29.89,South,180,0.0,0.0,82,0.00,,,0.00,WUHU21623XXSP,2013-08-26 05:46:00,
2013-08-26 00:51:00,72.3,66.2,29.89,South,180,0.0,0.0,81,0.00,,,0.00,WUHU21623XXSP,2013-08-26 05:51:00,
2013-08-26 00:56:00,72.1,66.3,29.89,South,180,0.0,0.0,82,0.00,,,0.00,WUHU21623XXSP,2013-08-26 05:56:00,
2013-08-26 01:01:00,72.1,66.3,29.88,South,180,0.0,0.0,82,0.00,,,0.00,WUHU21623XXSP,2013-08-26 06:01:00,
2013-08-26 01:06:00,72.0,66.2,29.89,South,180,0.0,0.0,82,0.00,,,0.00,WUHU21623XXSP,2013-08-26 06:06:00,
2013-08-26 01:11:00,71.8,66.0,29.88,South,180,0.0,0.0,82,0.00,,,0.00,WUHU21623XXSP,2013-08-26 06:11:00,
2013-08-26 01:16:00,71.8,66.0,29.88,South,180,0.0,0.0,82,0.00,,,0.00,WUHU21623XXSP,2013-08-26 06:16:00,
2013-08-26 01:21:00,71.8,66.0,29.88,South,180,0.0,0.0,82,0.00,,,0.00,WUHU21623XXSP,2013-08-26 06:21:00,
2013-08-26 01:26:00,71.6,65.8,29.88,South,180,0.0,0.0,82,0.00,,,0.00,WUHU21623XXSP,2013-08-26 06:26:00,
2013-08-26 01:31:00,71.2,65.8,29.87,South,180,0.0,0.0,83,0.00,,,0.00,WUHU21623XXSP,2013-08-26 06:31:00,
2013-08-26 01:36:00,71.2,65.8,29.87,South,180,0.0,0.0,83,0.00,,,0.00,WUHU21623XXSP,2013-08-26 06:36:00,
2013-08-26 01:41:00,71.2,65.8,29.87,South,180,0.0,0.0,83,0.00,,,0.00,WUHU21623XXSP,2013-08-26 06:41:00,
2013-08-26 01:46:00,70.9,65.4,29.87,South,180,0.0,0.0,83,0.00,,,0.00,WUHU21623XXSP,2013-08-26 06:46:00,
2013-08-26 01:51:00,70.9,65.8,29.87,South,180,0.0,0.0,84,0.00,,,0.00,WUHU21623XXSP,2013-08-26 06:51:00,
2013-08-26 01:56:00,71.1,66.3,29.87,South,180,0.0,0.0,85,0.00,,,0.00,WUHU21623XXSP,2013-08-26 06:56:00,
2013-08-26 02:01:00,70.9,66.1,29.87,South,180,0.0,0.0,85,0.00,,,0.00,WUHU21623XXSP,2013-08-26 07:01:00,
2013-08-26 02:06:00,70.9,66.1,29.87,South,180,0.0,0.0,85,0.00,,,0.00,WUHU21623XXSP,2013-08-26 07:06:00,
2013-08-26 02:11:00,70.9,66.1,29.87,South,180,0.0,0.0,85,0.00,,,0.00,WUHU21623XXSP,2013-08-26 07:11:00,
2013-08-26 02:16:00,70.9,66.1,29.87,South,180,0.0,0.0,85,0.00,,,0.00,WUHU21623XXSP,2013-08-26 07:16:00,
2013-08-26 02:21:00,70.2,65.4,29.88,South,180,0.0,0.0,85,0.00,,,0.00,WUHU21623XXSP,2013-08-26 07:21:00,
2013-08-26 02:26:00,69.8,65.4,29.88,South,180,0.0,0.0,86,0.00,,,0.00,WUHU21623XXSP,2013-08-26 07:26:00,
2013-08-26 02:31:00,69.4,65.0,29.88,South,180,0.0,0.0,86,0.00,,,0.00,WUHU21623XXSP,2013-08-26 07:31:00,
2013-08-26 02:36:00,69.4,65.4,29.88,South,180,0.0,0.0,87,0.00,,,0.00,WUHU21623XXSP,2013-08-26 07:36:00,
2013-08-26 02:41:00,69.3,65.2,29.88,SE,135,0.0,0.9,87,0.00,,,0.00,WUHU21623XXSP,2013-08-26 07:41:00,
2013-08-26 02:46:00,69.1,65.0,29.88,SE,135,0.0,0.9,87,0.00,,,0.00,WUHU21623XXSP,2013-08-26 07:46:00,
2013-08-26 02:51:00,69.4,65.4,29.88,SE,135,0.0,1.1,87,0.00,,,0.00,WUHU21623XXSP,2013-08-26 07:51:00,
2013-08-26 02:56:00,68.9,64.5,29.88,SE,135,0.0,1.1,86,0.00,,,0.00,WUHU21623XXSP,2013-08-26 07:56:00,
2013-08-26 03:01:00,68.5,64.1,29.88,SE,135,0.0,0.0,86,0.00,,,0.00,WUHU21623XXSP,2013-08-26 08:01:00,
2013-08-26 03:06:00,68.5,64.5,29.88,SE,135,0.0,0.0,87,0.00,,,0.00,WUHU21623XXSP,2013-08-26 08:06:00,
2013-08-26 03:11:00,68.4,64.3,29.88,SE,135,0.0,0.0,87,0.00,,,0.00,WUHU21623XXSP,2013-08-26 08:11:00,
2013-08-26 03:16:00,68.2,64.1,29.88,SSE,157,0.0,0.0,87,0.00,,,0.00,WUHU21623XXSP,2013-08-26 08:16:00,
2013-08-26 03:21:00,68.2,64.1,29.88,SSE,157,0.0,0.0,87,0.00,,,0.00,WUHU21623XXSP,2013-08-26 08:21:00,
2013-08-26 03:26:00,68.2,64.1,29.88,SSE,157,0.0,0.0,87,0.00,,,0.00,WUHU21623XXSP,2013-08-26 08:26:00,
2013-08-26 03:31:00,67.8,63.8,29.88,SSE,157,0.0,0.0,87,0.00,,,0.00,WUHU21623XXSP,2013-08-26 08:31:00,
2013-08-26 03:36:00,68.0,64.0,29.88,SSE,157,0.0,0.0,87,0.00,,,0.00,WUHU21623XXSP,2013-08-26 08:36:00,
2013-08-26 03:41:00,67.8,63.8,29.89,SSE,157,0.0,0.0,87,0.00,,,0.00,WUHU21623XXSP,2013-08-26 08:41:00,
2013-08-26 03:46:00,67.8,63.8,29.89,SSE,157,0.0,0.0,87,0.00,,,0.00,WUHU21623XXSP,2013-08-26 08:46:00,
2013-08-26 03:51:00,67.8,63.8,29.89,North,0,0.0,0.0,87,0.00,,,0.00,WUHU21623XXSP,2013-08-26 08:51:00,
2013-08-26 03:56:00,67.6,63.6,29.89,SSE,157,0.0,0.0,87,0.00,,,0.00,WUHU21623XXSP,2013-08-26 08:56:00,
2013-08-26 04:01:00,67.8,63.8,29.89,SSE,157,0.0,0.0,87,0.00,,,0.00,WUHU21623XXSP,2013-08-26 09:01:00,
2013-08-26 04:06:00,67.8,63.8,29.89,SSE,157,0.0,0.0,87,0.00,,,0.00,WUHU21623XXSP,2013-08-26 09:06:00,
2013-08-26 04:11:00,68.2,64.1,29.89,SSE,157,0.0,0.0,87,0.00,,,0.00,WUHU21623XXSP,2013-08-26 09:11:00,
2013-08-26 04:16:00,68.4,64.0,29.89,SSE,157,0.0,0.0,86,0.00,,,0.00,WUHU21623XXSP,2013-08-26 09:16:00,
2013-08-26 04:21:00,68.2,63.8,29.89,SSE,157,0.0,0.0,86,0.00,,,0.00,WUHU21623XXSP,2013-08-26 09:21:00,
2013-08-26 04:26:00,67.8,63.5,29.89,SSE,157,0.0,0.0,86,0.00,,,0.00,WUHU21623XXSP,2013-08-26 09:26:00,
2013-08-26 04:31:00,67.3,63.2,29.89,SSE,157,0.0,0.0,87,0.00,,,0.00,WUHU21623XXSP,2013-08-26 09:31:00,
2013-08-26 04:36:00,67.3,63.2,29.89,SSE,157,0.0,0.0,87,0.00,,,0.00,WUHU21623XXSP,2013-08-26 09:36:00,
2013-08-26 04:41:00,67.8,64.1,29.89,SSE,157,0.0,0.0,88,0.00,,,0.00,WUHU21623XXSP,2013-08-26 09:41:00,
2013-08-26 04:46:00,67.6,63.9,29.89,SSE,157,0.0,0.0,88,0.00,,,0.00,WUHU21623XXSP,2013-08-26 09:46:00,
2013-08-26 04:51:00,67.6,63.9,29.89,SSE,157,0.0,0.0,88,0.00,,,0.00,WUHU21623XXSP,2013-08-26 09:51:00,
2013-08-26 04:56:00,67.6,63.9,29.89,SSE,157,0.0,0.0,88,0.00,,,0.00,WUHU21623XXSP,2013-08-26 09:56:00,
2013-08-26 05:01:00,67.3,63.6,29.89,SSE,157,0.0,0.0,88,0.00,,,0.00,WUHU21623XXSP,2013-08-26 10:01:00,
2013-08-26 05:06:00,67.1,63.4,29.89,SSE,157,0.0,0.0,88,0.00,,,0.00,WUHU21623XXSP,2013-08-26 10:06:00,
2013-08-26 05:11:00,66.9,63.2,29.89,SSE,157,0.0,0.0,88,0.00,,,0.00,WUHU21623XXSP,2013-08-26 10:11:00,
2013-08-26 05:16:00,67.5,63.8,29.89,SSE,157,0.0,0.0,88,0.00,,,0.00,WUHU21623XXSP,2013-08-26 10:16:00,
2013-08-26 05:21:00,67.5,63.8,29.89,SSE,157,0.0,0.0,88,0.00,,,0.00,WUHU21623XXSP,2013-08-26 10:21:00,
2013-08-26 05:26:00,67.6,63.9,29.90,SSE,157,0.0,0.0,88,0.00,,,0.00,WUHU21623XXSP,2013-08-26 10:26:00,
2013-08-26 05:31:00,67.6,63.9,29.90,SSE,157,0.0,0.0,88,0.00,,,0.00,WUHU21623XXSP,2013-08-26 10:31:00,
2013-08-26 05:36:00,67.5,63.8,29.90,SSE,157,0.0,0.0,88,0.00,,,0.00,WUHU21623XXSP,2013-08-26 10:36:00,
2013-08-26 05:41:00,67.3,63.6,29.90,SSE,157,0.0,0.0,88,0.00,,,0.00,WUHU21623XXSP,2013-08-26 10:41:00,
2013-08-26 05:46:00,67.3,63.6,29.89,SSE,157,0.0,0.0,88,0.00,,,0.00,WUHU21623XXSP,2013-08-26 10:46:00,
2013-08-26 05:51:00,67.1,63.4,29.90,SSE,157,0.0,0.0,88,0.00,,,0.00,WUHU21623XXSP,2013-08-26 10:51:00,
2013-08-26 05:56:00,67.3,63.6,29.90,SSE,157,0.0,0.0,88,0.00,,,0.00,WUHU21623XXSP,2013-08-26 10:56:00,
2013-08-26 06:01:00,66.9,63.2,29.90,SSE,157,0.0,0.0,88,0.00,,,0.00,WUHU21623XXSP,2013-08-26 11:01:00,
2013-08-26 06:06:00,66.7,63.0,29.90,SSE,157,0.0,0.0,88,0.00,,,0.00,WUHU21623XXSP,2013-08-26 11:06:00,
2013-08-26 06:11:00,66.6,62.9,29.90,SSE,157,0.0,0.0,88,0.00,,,0.00,WUHU21623XXSP,2013-08-26 11:11:00,
2013-08-26 06:16:00,66.4,62.7,29.91,SSE,157,0.0,0.0,88,0.00,,,0.00,WUHU21623XXSP,2013-08-26 11:16:00,
2013-08-26 06:21:00,66.4,62.7,29.91,SSE,157,0.0,0.0,88,0.00,,,0.00,WUHU21623XXSP,2013-08-26 11:21:00,
2013-08-26 06:26:00,66.0,62.3,29.91,SSE,157,0.0,0.0,88,0.00,,,0.00,WUHU21623XXSP,2013-08-26 11:26:00,
2013-08-26 06:31:00,66.0,62.3,29.91,SSE,157,0.0,0.0,88,0.00,,,0.00,WUHU21623XXSP,2013-08-26 11:31:00,
2013-08-26 06:36:00,66.0,62.3,29.91,SSE,157,0.0,0.0,88,0.00,,,0.00,WUHU21623XXSP,2013-08-26 11:36:00,
2013-08-26 06:41:00,66.0,62.3,29.91,SSE,157,0.0,0.0,88,0.00,,,0.00,WUHU21623XXSP,2013-08-26 11:41:00,
2013-08-26 06:46:00,66.0,62.6,29.91,SSE,157,0.0,0.0,89,0.00,,,0.00,WUHU21623XXSP,2013-08-26 11:46:00,
2013-08-26 06:51:00,66.0,62.6,29.92,SSE,157,0.0,0.0,89,0.00,,,0.00,WUHU21623XXSP,2013-08-26 11:51:00,
2013-08-26 06:56:00,66.0,62.6,29.92,SSE,157,0.0,0.0,89,0.00,,,0.00,WUHU21623XXSP,2013-08-26 11:56:00,
2013-08-26 07:01:00,66.2,62.8,29.92,North,0,0.0,0.0,89,0.00,,,0.00,WUHU21623XXSP,2013-08-26 12:01:00,
2013-08-26 07:06:00,66.2,62.8,29.91,SSE,157,0.0,0.0,89,0.00,,,0.00,WUHU21623XXSP,2013-08-26 12:06:00,
2013-08-26 07:11:00,66.0,62.6,29.91,SSE,157,0.0,0.0,89,0.00,,,0.00,WUHU21623XXSP,2013-08-26 12:11:00,
2013-08-26 07:16:00,66.0,62.6,29.92,SSE,157,0.0,0.0,89,0.00,,,0.00,WUHU21623XXSP,2013-08-26 12:16:00,
2013-08-26 07:21:00,66.4,63.0,29.92,SSE,157,0.0,0.0,89,0.00,,,0.00,WUHU21623XXSP,2013-08-26 12:21:00,
2013-08-26 07:26:00,66.4,63.0,29.92,SSE,157,0.0,0.0,89,0.00,,,0.00,WUHU21623XXSP,2013-08-26 12:26:00,
2013-08-26 07:31:00,66.4,63.0,29.92,SSE,157,0.0,0.0,89,0.00,,,0.00,WUHU21623XXSP,2013-08-26 12:31:00,
2013-08-26 07:36:00,66.6,63.2,29.92,SSE,157,0.0,0.0,89,0.00,,,0.00,WUHU21623XXSP,2013-08-26 12:36:00,
2013-08-26 07:41:00,66.7,63.4,29.93,SSE,157,0.0,0.0,89,0.00,,,0.00,WUHU21623XXSP,2013-08-26 12:41:00,
2013-08-26 07:46:00,66.9,63.5,29.93,SSE,157,0.0,0.0,89,0.00,,,0.00,WUHU21623XXSP,2013-08-26 12:46:00,
2013-08-26 07:51:00,67.3,63.6,29.93,SSE,157,0.0,0.0,88,0.00,,,0.00,WUHU21623XXSP,2013-08-26 12:51:00,
2013-08-26 07:56:00,67.3,63.6,29.93,SSE,157,0.0,0.0,88,0.00,,,0.00,WUHU21623XXSP,2013-08-26 12:56:00,
2013-08-26 08:01:00,67.8,64.1,29.93,SSE,157,0.0,0.0,88,0.00,,,0.00,WUHU21623XXSP,2013-08-26 13:01:00,
2013-08-26 08:06:00,68.2,64.5,29.93,SSE,157,0.0,0.0,88,0.00,,,0.00,WUHU21623XXSP,2013-08-26 13:06:00,
2013-08-26 08:11:00,68.4,64.3,29.93,SSE,157,0.0,0.0,87,0.00,,,0.00,WUHU21623XXSP,2013-08-26 13:11:00,
2013-08-26 08:16:00,68.5,64.5,29.93,SSE,157,0.0,0.0,87,0.00,,,0.00,WUHU21623XXSP,2013-08-26 13:16:00,
2013-08-26 08:21:00,69.4,65.4,29.93,SSE,157,0.0,0.0,87,0.00,,,0.00,WUHU21623XXSP,2013-08-26 13:21:00,
2013-08-26 08:26:00,70.2,65.7,29.93,SSE,157,0.0,0.0,86,0.00,,,0.00,WUHU21623XXSP,2013-08-26 13:26:00,
2013-08-26 08:31:00,71.2,66.5,29.93,SSE,157,0.0,0.0,85,0.00,,,0.00,WUHU21623XXSP,2013-08-26 13:31:00,
2013-08-26 08:36:00,71.8,66.7,29.93,SSE,157,0.0,0.0,84,0.00,,,0.00,WUHU21623XXSP,2013-08-26 13:36:00,
2013-08-26 08:41:00,72.3,67.2,29.93,SSE,157,0.0,0.0,84,0.00,,,0.00,WUHU21623XXSP,2013-08-26 13:41:00,
2013-08-26 08:46:00,72.5,67.4,29.93,SSE,157,0.0,0.0,84,0.00,,,0.00,WUHU21623XXSP,2013-08-26 13:46:00,
2013-08-26 08:51:00,72.9,67.4,29.93,SSE,157,0.0,0.0,83,0.00,,,0.00,WUHU21623XXSP,2013-08-26 13:51:00,
2013-08-26 08:56:00,73.6,68.1,29.93,SSE,157,0.0,0.0,83,0.00,,,0.00,WUHU21623XXSP,2013-08-26 13:56:00,
2013-08-26 09:01:00,74.8,68.7,29.93,SSE,157,0.0,0.0,81,0.00,,,0.00,WUHU21623XXSP,2013-08-26 14:01:00,
2013-08-26 09:06:00,75.4,68.9,29.93,SSE,157,0.0,0.0,80,0.00,,,0.00,WUHU21623XXSP,2013-08-26 14:06:00,
2013-08-26 09:11:00,75.6,69.0,29.93,SSE,157,0.0,0.0,80,0.00,,,0.00,WUHU21623XXSP,2013-08-26 14:11:00,
2013-08-26 09:16:00,75.2,69.1,29.92,SSE,157,0.0,0.0,81,0.00,,,0.00,WUHU21623XXSP,2013-08-26 14:16:00,
2013-08-26 09:21:00,74.5,68.7,29.92,SSE,157,0.0,0.0,82,0.00,,,0.00,WUHU21623XXSP,2013-08-26 14:21:00,
2013-08-26 09:26:00,74.7,68.9,29.93,SSE,157,0.0,0.0,82,0.00,,,0.00,WUHU21623XXSP,2013-08-26 14:26:00,
2013-08-26 09:31:00,75.6,69.0,29.93,SSE,157,0.0,0.0,80,0.00,,,0.00,WUHU21623XXSP,2013-08-26 14:31:00,
2013-08-26 09:36:00,76.1,69.1,29.93,SSE,157,0.0,0.0,79,0.00,,,0.00,WUHU21623XXSP,2013-08-26 14:36:00,
2013-08-26 09:41:00,76.3,69.3,29.93,SSE,157,0.0,0.0,79,0.00,,,0.00,WUHU21623XXSP,2013-08-26 14:41:00,
2013-08-26 09:46:00,77.7,69.5,29.93,SE,135,0.0,0.0,76,0.00,,,0.00,WUHU21623XXSP,2013-08-26 14:46:00,
2013-08-26 09:51:00,78.6,70.4,29.93,SSE,157,0.0,0.0,76,0.00,,,0.00,WUHU21623XXSP,2013-08-26 14:51:00,
2013-08-26 09:56:00,79.7,69.5,29.93,NNE,22,0.0,0.0,71,0.00,,,0.00,WUHU21623XXSP,2013-08-26 14:56:00,
2013-08-26 10:01:00,79.9,67.9,29.93,SSE,157,0.0,0.0,67,0.00,,,0.00,WUHU21623XXSP,2013-08-26 15:01:00,
2013-08-26 10:06:00,79.5,68.9,29.93,SSE,157,0.0,0.0,70,0.00,,,0.00,WUHU21623XXSP,2013-08-26 15:06:00,
2013-08-26 10:11:00,79.3,69.1,29.93,SSE,157,0.0,0.0,71,0.00,,,0.00,WUHU21623XXSP,2013-08-26 15:11:00,
2013-08-26 10:16:00,79.2,68.1,29.93,South,180,0.0,0.0,69,0.00,,,0.00,WUHU21623XXSP,2013-08-26 15:16:00,
2013-08-26 10:21:00,79.9,68.8,29.93,SSE,157,0.0,0.0,69,0.00,,,0.00,WUHU21623XXSP,2013-08-26 15:21:00,
2013-08-26 10:26:00,79.5,68.9,29.93,SSW,202,0.0,0.0,70,0.00,,,0.00,WUHU21623XXSP,2013-08-26 15:26:00,
2013-08-26 10:31:00,80.4,67.1,29.93,SSW,202,0.0,0.0,64,0.00,,,0.00,WUHU21623XXSP,2013-08-26 15:31:00,
2013-08-26 10:36:00,81.1,67.8,29.93,SSW,202,0.0,0.0,64,0.00,,,0.00,WUHU21623XXSP,2013-08-26 15:36:00,
2013-08-26 10:41:00,80.6,67.7,29.93,SE,135,0.0,0.0,65,0.00,,,0.00,WUHU21623XXSP,2013-08-26 15:41:00,
2013-08-26 10:46:00,81.5,67.6,29.93,SE,135,0.0,0.0,63,0.00,,,0.00,WUHU21623XXSP,2013-08-26 15:46:00,
2013-08-26 10:51:00,81.3,67.9,29.93,SE,135,0.0,0.0,64,0.00,,,0.00,WUHU21623XXSP,2013-08-26 15:51:00,
2013-08-26 10:56:00,81.5,66.7,29.93,South,180,0.0,0.0,61,0.00,,,0.00,WUHU21623XXSP,2013-08-26 15:56:00,
2013-08-26 11:01:00,81.1,66.9,29.93,SSE,157,0.0,0.2,62,0.00,,,0.00,WUHU21623XXSP,2013-08-26 16:01:00,
2013-08-26 11:06:00,81.1,66.9,29.93,South,180,0.0,0.2,62,0.00,,,0.00,WUHU21623XXSP,2013-08-26 16:06:00,
2013-08-26 11:11:00,82.0,66.8,29.92,SE,135,0.0,3.6,60,0.00,,,0.00,WUHU21623XXSP,2013-08-26 16:11:00,
2013-08-26 11:16:00,82.6,68.2,29.92,SE,135,0.0,3.6,62,0.00,,,0.00,WUHU21623XXSP,2013-08-26 16:16:00,
2013-08-26 11:21:00,82.9,68.5,29.93,NE,45,0.0,2.0,62,0.00,,,0.00,WUHU21623XXSP,2013-08-26 16:21:00,
2013-08-26 11:26:00,83.1,67.3,29.92,ESE,112,0.0,1.6,59,0.00,,,0.00,WUHU21623XXSP,2013-08-26 16:26:00,
2013-08-26 11:31:00,84.9,69.0,29.93,ENE,67,0.0,4.9,59,0.00,,,0.00,WUHU21623XXSP,2013-08-26 16:31:00,
2013-08-26 11:36:00,83.8,66.5,29.93,SE,135,0.0,4.9,56,0.00,,,0.00,WUHU21623XXSP,2013-08-26 16:36:00,
2013-08-26 11:41:00,84.0,67.7,29.93,NE,45,0.0,1.3,58,0.00,,,0.00,WUHU21623XXSP,2013-08-26 16:41:00,
2013-08-26 11:46:00,83.3,67.0,29.93,SE,135,0.0,1.3,58,0.00,,,0.00,WUHU21623XXSP,2013-08-26 16:46:00,
2013-08-26 11:51:00,82.9,66.6,29.93,SE,135,0.0,0.0,58,0.00,,,0.00,WUHU21623XXSP,2013-08-26 16:51:00,
2013-08-26 11:56:00,83.3,66.4,29.92,SE,135,0.0,0.0,57,0.00,,,0.00,WUHU21623XXSP,2013-08-26 16:56:00,
2013-08-26 12:01:00,84.9,68.0,29.92,South,180,0.0,0.0,57,0.00,,,0.00,WUHU21623XXSP,2013-08-26 17:01:00,
2013-08-26 12:06:00,85.8,67.2,29.92,SSW,202,0.0,0.0,54,0.00,,,0.00,WUHU21623XXSP,2013-08-26 17:06:00,
2013-08-26 12:11:00,85.6,66.5,29.92,SSE,157,0.0,0.0,53,0.00,,,0.00,WUHU21623XXSP,2013-08-26 17:11:00,
2013-08-26 12:16:00,84.9,67.5,29.92,SSE,157,0.0,0.0,56,0.00,,,0.00,WUHU21623XXSP,2013-08-26 17:16:00,
2013-08-26 12:21:00,84.7,66.3,29.91,SSE,157,0.0,2.7,54,0.00,,,0.00,WUHU21623XXSP,2013-08-26 17:21:00,
2013-08-26 12:26:00,85.8,66.7,29.91,SSE,157,0.0,2.7,53,0.00,,,0.00,WUHU21623XXSP,2013-08-26 17:26:00,
2013-08-26 12:31:00,86.5,66.8,29.91,SSW,202,0.0,2.5,52,0.00,,,0.00,WUHU21623XXSP,2013-08-26 17:31:00,
2013-08-26 12:36:00,86.7,67.5,29.91,SSE,157,2.7,2.7,53,0.00,,,0.00,WUHU21623XXSP,2013-08-26 17:36:00,
2013-08-26 12:41:00,86.7,67.0,29.91,SSW,202,0.0,2.9,52,0.00,,,0.00,WUHU21623XXSP,2013-08-26 17:41:00,
2013-08-26 12:46:00,86.4,66.1,29.91,SSE,157,0.0,3.1,51,0.00,,,0.00,WUHU21623XXSP,2013-08-26 17:46:00,
2013-08-26 12:51:00,86.5,66.8,29.91,South,180,0.0,3.1,52,0.00,,,0.00,WUHU21623XXSP,2013-08-26 17:51:00,
2013-08-26 12:56:00,87.1,66.3,29.91,WSW,247,0.0,3.8,50,0.00,,,0.00,WUHU21623XXSP,2013-08-26 17:56:00,
2013-08-26 13:01:00,87.8,66.9,29.91,South,180,3.1,3.8,50,0.00,,,0.00,WUHU21623XXSP,2013-08-26 18:01:00,
2013-08-26 13:06:00,87.1,66.8,29.91,WSW,247,0.0,5.4,51,0.00,,,0.00,WUHU21623XXSP,2013-08-26 18:06:00,
2013-08-26 13:11:00,88.2,67.8,29.91,NE,45,0.9,5.4,50,0.00,,,0.00,WUHU21623XXSP,2013-08-26 18:11:00,
2013-08-26 13:16:00,87.4,67.1,29.90,NW,315,0.0,0.9,51,0.00,,,0.00,WUHU21623XXSP,2013-08-26 18:16:00,
2013-08-26 13:21:00,88.5,66.3,29.90,WSW,247,0.0,1.6,48,0.00,,,0.00,WUHU21623XXSP,2013-08-26 18:21:00,
2013-08-26 13:26:00,88.5,66.9,29.90,NW,315,0.9,1.6,49,0.00,,,0.00,WUHU21623XXSP,2013-08-26 18:26:00,
2013-08-26 13:31:00,89.4,67.7,29.90,WNW,292,0.0,1.1,49,0.00,,,0.00,WUHU21623XXSP,2013-08-26 18:31:00,
2013-08-26 13:36:00,88.5,66.3,29.89,WNW,292,0.0,0.0,48,0.00,,,0.00,WUHU21623XXSP,2013-08-26 18:36:00,
2013-08-26 13:41:00,88.2,65.3,29.89,North,0,0.0,2.0,47,0.00,,,0.00,WUHU21623XXSP,2013-08-26 18:41:00,
2013-08-26 13:46:00,88.0,65.2,29.89,SW,225,0.0,2.0,47,0.00,,,0.00,WUHU21623XXSP,2013-08-26 18:46:00,
2013-08-26 13:51:00,88.3,66.1,29.89,SW,225,1.1,1.6,48,0.00,,,0.00,WUHU21623XXSP,2013-08-26 18:51:00,
2013-08-26 13:56:00,88.9,66.6,29.89,WSW,247,0.0,2.9,48,0.00,,,0.00,WUHU21623XXSP,2013-08-26 18:56:00,
2013-08-26 14:01:00,89.2,67.6,29.89,NW,315,1.3,2.9,49,0.00,,,0.00,WUHU21623XXSP,2013-08-26 19:01:00,
2013-08-26 14:06:00,88.0,66.4,29.88,NNW,337,0.0,1.3,49,0.00,,,0.00,WUHU21623XXSP,2013-08-26 19:06:00,
2013-08-26 14:11:00,88.0,67.1,29.88,NNW,337,0.0,0.7,50,0.00,,,0.00,WUHU21623XXSP,2013-08-26 19:11:00,
2013-08-26 14:16:00,88.2,67.2,29.88,NW,315,0.0,0.0,50,0.00,,,0.00,WUHU21623XXSP,2013-08-26 19:16:00,
2013-08-26 14:21:00,88.3,66.1,29.88,NW,315,0.0,4.7,48,0.00,,,0.00,WUHU21623XXSP,2013-08-26 19:21:00,
2013-08-26 14:26:00,89.2,66.9,29.88,NW,315,0.0,4.7,48,0.00,,,0.00,WUHU21623XXSP,2013-08-26 19:26:00,
2013-08-26 14:31:00,90.0,67.6,29.88,North,0,2.0,2.5,48,0.00,,,0.00,WUHU21623XXSP,2013-08-26 19:31:00,
2013-08-26 14:36:00,88.7,66.5,29.88,North,0,0.0,3.8,48,0.00,,,0.00,WUHU21623XXSP,2013-08-26 19:36:00,
2013-08-26 14:41:00,90.5,67.4,29.88,NW,315,0.0,4.5,47,0.00,,,0.00,WUHU21623XXSP,2013-08-26 19:41:00,
2013-08-26 14:46:00,91.0,67.2,29.88,NW,315,0.0,4.5,46,0.00,,,0.00,WUHU21623XXSP,2013-08-26 19:46:00,
2013-08-26 14:51:00,90.7,67.6,29.88,NW,315,0.0,3.8,47,0.00,,,0.00,WUHU21623XXSP,2013-08-26 19:51:00,
2013-08-26 14:56:00,90.1,66.4,29.88,NNW,337,0.0,2.2,46,0.00,,,0.00,WUHU21623XXSP,2013-08-26 19:56:00,
2013-08-26 15:01:00,89.2,67.6,29.88,NW,315,2.5,2.5,49,0.00,,,0.00,WUHU21623XXSP,2013-08-26 20:01:00,
2013-08-26 15:06:00,89.2,67.6,29.88,NNW,337,0.0,4.0,49,0.00,,,0.00,WUHU21623XXSP,2013-08-26 20:06:00,
2013-08-26 15:11:00,89.4,67.1,29.88,NW,315,0.9,4.0,48,0.00,,,0.00,WUHU21623XXSP,2013-08-26 20:11:00,
2013-08-26 15:16:00,89.2,67.6,29.88,NW,315,0.0,4.7,49,0.00,,,0.00,WUHU21623XXSP,2013-08-26 20:16:00,
2013-08-26 15:21:00,88.9,67.9,29.88,NW,315,0.0,4.7,50,0.00,,,0.00,WUHU21623XXSP,2013-08-26 20:21:00,
2013-08-26 15:26:00,87.3,68.6,29.87,NW,315,0.0,2.7,54,0.00,,,0.00,WUHU21623XXSP,2013-08-26 20:26:00,
2013-08-26 15:31:00,86.7,67.0,29.88,NW,315,0.0,0.0,52,0.00,,,0.00,WUHU21623XXSP,2013-08-26 20:31:00,
2013-08-26 15:36:00,86.5,69.5,29.88,NW,315,0.0,1.3,57,0.00,,,0.00,WUHU21623XXSP,2013-08-26 20:36:00,
2013-08-26 15:41:00,85.3,66.2,29.87,NW,315,0.0,1.3,53,0.00,,,0.00,WUHU21623XXSP,2013-08-26 20:41:00,
2013-08-26 15:46:00,87.3,67.5,29.87,NW,315,0.0,0.0,52,0.00,,,0.00,WUHU21623XXSP,2013-08-26 20:46:00,
2013-08-26 15:51:00,85.3,67.8,29.87,NW,315,0.0,0.0,56,0.00,,,0.00,WUHU21623XXSP,2013-08-26 20:51:00,
2013-08-26 15:56:00,84.4,67.5,29.88,NW,315,0.0,0.0,57,0.00,,,0.00,WUHU21623XXSP,2013-08-26 20:56:00,
2013-08-26 16:01:00,84.7,70.7,29.87,NW,315,0.0,0.0,63,0.00,,,0.00,WUHU21623XXSP,2013-08-26 21:01:00,
2013-08-26 16:06:00,84.0,69.6,29.87,NW,315,0.0,0.0,62,0.00,,,0.00,WUHU21623XXSP,2013-08-26 21:06:00,
2013-08-26 16:11:00,83.3,68.9,29.87,NW,315,0.0,0.0,62,0.00,,,0.00,WUHU21623XXSP,2013-08-26 21:11:00,
2013-08-26 16:16:00,83.5,70.4,29.87,NW,315,0.0,0.0,65,0.00,,,0.00,WUHU21623XXSP,2013-08-26 21:16:00,
2013-08-26 16:21:00,82.2,71.0,29.86,NW,315,0.0,0.0,69,0.00,,,0.00,WUHU21623XXSP,2013-08-26 21:21:00,
2013-08-26 16:26:00,82.6,69.5,29.86,NW,315,0.0,0.0,65,0.00,,,0.00,WUHU21623XXSP,2013-08-26 21:26:00,
2013-08-26 16:31:00,82.4,70.7,29.86,NW,315,0.0,0.0,68,0.00,,,0.00,WUHU21623XXSP,2013-08-26 21:31:00,
2013-08-26 16:36:00,82.2,69.6,29.86,NW,315,0.0,0.0,66,0.00,,,0.00,WUHU21623XXSP,2013-08-26 21:36:00,
2013-08-26 16:41:00,82.6,70.4,29.86,NW,315,0.0,0.0,67,0.00,,,0.00,WUHU21623XXSP,2013-08-26 21:41:00,
2013-08-26 16:46:00,83.3,69.8,29.86,NW,315,0.0,0.0,64,0.00,,,0.00,WUHU21623XXSP,2013-08-26 21:46:00,
2013-08-26 16:51:00,83.5,69.5,29.85,NW,315,0.0,0.0,63,0.00,,,0.00,WUHU21623XXSP,2013-08-26 21:51:00,
2013-08-26 16:56:00,83.8,69.0,29.85,NNE,22,0.0,0.4,61,0.00,,,0.00,WUHU21623XXSP,2013-08-26 21:56:00,
2013-08-26 17:01:00,83.5,70.0,29.85,NNE,22,0.0,0.4,65,0.00,,,0.00,WUHU21623XXSP,2013-08-26 22:01:00,
2013-08-26 17:06:00,83.3,69.8,29.85,NNE,22,0.0,0.0,64,0.00,,,0.00,WUHU21623XXSP,2013-08-26 22:06:00,
2013-08-26 17:11:00,83.3,69.8,29.85,NNE,22,0.0,0.0,64,0.00,,,0.00,WUHU21623XXSP,2013-08-26 22:11:00,
2013-08-26 17:16:00,83.1,71.7,29.85,North,0,0.0,0.0,68,0.00,,,0.00,WUHU21623XXSP,2013-08-26 22:16:00,
2013-08-26 17:22:00,83.1,70.1,29.85,NNE,22,0.0,0.0,65,0.00,,,0.00,WUHU21623XXSP,2013-08-26 22:22:00,
2013-08-26 17:27:00,83.1,70.1,29.84,NNE,22,0.0,0.0,65,0.00,,,0.00,WUHU21623XXSP,2013-08-26 22:27:00,
2013-08-26 17:32:00,84.0,69.2,29.84,NNE,22,0.0,0.0,61,0.00,,,0.00,WUHU21623XXSP,2013-08-26 22:32:00,
2013-08-26 17:37:00,84.0,71.0,29.84,NNE,22,0.0,0.0,65,0.00,,,0.00,WUHU21623XXSP,2013-08-26 22:37:00,
2013-08-26 17:42:00,84.0,69.6,29.84,WSW,247,0.0,0.0,62,0.00,,,0.00,WUHU21623XXSP,2013-08-26 22:42:00,
2013-08-26 17:47:00,84.7,69.4,29.83,WSW,247,0.0,0.0,59,0.00,,,0.00,WUHU21623XXSP,2013-08-26 22:47:00,
2013-08-26 17:52:00,85.3,68.8,29.83,WSW,247,0.0,1.8,58,0.00,,,0.00,WUHU21623XXSP,2013-08-26 22:52:00,
2013-08-26 17:57:00,84.9,68.0,29.83,North,0,0.0,1.8,57,0.00,,,0.00,WUHU21623XXSP,2013-08-26 22:57:00,
2013-08-26 18:02:00,84.9,67.5,29.83,North,0,0.0,1.8,56,0.00,,,0.00,WUHU21623XXSP,2013-08-26 23:02:00,
2013-08-26 18:07:00,85.1,67.1,29.84,NE,45,0.0,0.0,55,0.00,,,0.00,WUHU21623XXSP,2013-08-26 23:07:00,
2013-08-26 18:12:00,84.6,69.2,29.84,NNE,22,0.0,0.0,60,0.00,,,0.00,WUHU21623XXSP,2013-08-26 23:12:00,
2013-08-26 18:17:00,84.0,69.2,29.85,NNE,22,0.0,0.0,61,0.00,,,0.00,WUHU21623XXSP,2013-08-26 23:17:00,
2013-08-26 18:22:00,84.0,67.7,29.85,ENE,67,0.0,0.0,58,0.00,,,0.00,WUHU21623XXSP,2013-08-26 23:22:00,
2013-08-26 18:27:00,84.0,67.2,29.85,NE,45,0.0,0.0,57,0.00,,,0.00,WUHU21623XXSP,2013-08-26 23:27:00,
2013-08-26 18:32:00,84.2,67.9,29.85,NE,45,0.0,0.0,58,0.00,,,0.00,WUHU21623XXSP,2013-08-26 23:32:00,
2013-08-26 18:37:00,83.8,68.5,29.85,NE,45,0.0,0.0,60,0.00,,,0.00,WUHU21623XXSP,2013-08-26 23:37:00,
2013-08-26 18:42:00,82.8,68.4,29.85,NE,45,0.0,0.0,62,0.00,,,0.00,WUHU21623XXSP,2013-08-26 23:42:00,
2013-08-26 18:47:00,82.0,67.7,29.85,NE,45,0.0,0.0,62,0.00,,,0.00,WUHU21623XXSP,2013-08-26 23:47:00,
2013-08-26 18:52:00,81.7,67.8,29.85,NE,45,0.0,0.0,63,0.00,,,0.00,WUHU21623XXSP,2013-08-26 23:52:00,
2013-08-26 18:57:00,81.1,67.8,29.86,NE,45,0.0,0.0,64,0.00,,,0.00,WUHU21623XXSP,2013-08-26 23:57:00,
2013-08-26 19:02:00,81.1,67.3,29.85,NE,45,0.0,0.0,63,0.00,,,0.00,WUHU21623XXSP,2013-08-27 00:02:00,
2013-08-26 19:07:00,80.8,67.9,29.85,NE,45,0.0,0.0,65,0.00,,,0.00,WUHU21623XXSP,2013-08-27 00:07:00,
2013-08-26 19:12:00,80.4,68.0,29.86,NE,45,0.0,0.0,66,0.00,,,0.00,WUHU21623XXSP,2013-08-27 00:12:00,
2013-08-26 19:17:00,79.7,67.3,29.86,NE,45,0.0,0.0,66,0.00,,,0.00,WUHU21623XXSP,2013-08-27 00:17:00,
2013-08-26 19:22:00,79.3,68.3,29.86,NE,45,0.0,0.0,69,0.00,,,0.00,WUHU21623XXSP,2013-08-27 00:22:00,
2013-08-26 19:27:00,78.8,68.2,29.86,SE,135,0.0,0.0,70,0.00,,,0.00,WUHU21623XXSP,2013-08-27 00:27:00,
2013-08-26 19:32:00,79.2,68.9,29.86,SE,135,0.0,2.0,71,0.00,,,0.00,WUHU21623XXSP,2013-08-27 00:32:00,
2013-08-26 19:37:00,79.3,69.5,29.86,South,180,0.0,2.0,72,0.00,,,0.00,WUHU21623XXSP,2013-08-27 00:37:00,
2013-08-26 19:42:00,79.2,69.3,29.86,South,180,2.9,4.3,72,0.00,,,0.00,WUHU21623XXSP,2013-08-27 00:42:00,
2013-08-26 19:47:00,79.3,69.5,29.86,SSE,157,4.0,6.5,72,0.00,,,0.00,WUHU21623XXSP,2013-08-27 00:47:00,
2013-08-26 19:52:00,79.0,67.9,29.86,WNW,292,1.6,7.8,69,0.00,,,0.00,WUHU21623XXSP,2013-08-27 00:52:00,
2013-08-26 19:57:00,78.4,66.5,29.85,SW,225,2.7,9.2,67,0.00,,,0.00,WUHU21623XXSP,2013-08-27 00:57:00,
2013-08-26 20:02:00,77.5,66.1,29.85,SSE,157,0.0,9.2,68,0.00,,,0.00,WUHU21623XXSP,2013-08-27 01:02:00,
2013-08-26 20:07:00,77.2,66.3,29.85,SSE,157,2.7,6.9,69,0.00,,,0.00,WUHU21623XXSP,2013-08-27 01:07:00,
2013-08-26 20:12:00,76.8,66.4,29.84,SSE,157,0.0,3.6,70,0.00,,,0.00,WUHU21623XXSP,2013-08-27 01:12:00,
2013-08-26 20:17:00,76.6,66.6,29.84,SSE,157,0.0,2.1,71,0.00,,,0.00,WUHU21623XXSP,2013-08-27 01:17:00,
2013-08-26 20:22:00,75.9,65.9,29.84,South,180,0.0,2.0,71,0.00,,,0.00,WUHU21623XXSP,2013-08-27 01:22:00,
2013-08-26 20:27:00,75.4,65.7,29.85,South,180,1.1,2.0,72,0.00,,,0.00,WUHU21623XXSP,2013-08-27 01:27:00,
2013-08-26 20:32:00,75.0,65.8,29.85,SSE,157,0.0,2.0,73,0.00,,,0.00,WUHU21623XXSP,2013-08-27 01:32:00,
2013-08-26 20:37:00,75.0,66.7,29.85,SSE,165,0.1,2.0,75,0.00,,,0.00,WUHU21623XXSP,2013-08-27 01:37:00,
2013-08-26 20:42:00,74.8,65.6,29.85,SSE,157,0.0,0.1,73,0.00,,,0.00,WUHU21623XXSP,2013-08-27 01:42:00,
2013-08-26 20:47:00,74.3,65.9,29.86,SSE,157,0.0,0.1,75,0.00,,,0.00,WUHU21623XXSP,2013-08-27 01:47:00,
2013-08-26 20:52:00,74.1,65.7,29.86,SSE,157,0.0,0.0,75,0.00,,,0.00,WUHU21623XXSP,2013-08-27 01:52:00,
2013-08-26 20:57:00,73.8,65.4,29.86,SSE,157,0.0,0.0,75,0.00,,,0.00,WUHU21623XXSP,2013-08-27 01:57:00,
2013-08-26 21:02:00,73.6,65.2,29.86,SSE,157,0.0,0.0,75,0.00,,,0.00,WUHU21623XXSP,2013-08-27 02:02:00,
2013-08-26 21:07:00,73.6,65.2,29.86,SSE,157,0.0,0.0,75,0.00,,,0.00,WUHU21623XXSP,2013-08-27 02:07:00,
2013-08-26 21:12:00,73.6,65.6,29.85,SSE,157,0.0,0.0,76,0.00,,,0.00,WUHU21623XXSP,2013-08-27 02:12:00,
2013-08-26 21:17:00,73.0,65.8,29.85,SSE,157,0.0,0.0,78,0.00,,,0.00,WUHU21623XXSP,2013-08-27 02:17:00,
2013-08-26 21:22:00,72.7,65.6,29.85,SSE,164,0.0,0.0,78,0.00,,,0.00,WUHU21623XXSP,2013-08-27 02:22:00,
2013-08-26 21:27:00,72.3,65.1,29.85,SSE,157,0.0,0.0,78,0.00,,,0.00,WUHU21623XXSP,2013-08-27 02:27:00,
2013-08-26 21:32:00,72.3,65.2,29.85,SSE,164,0.0,0.0,78,0.00,,,0.00,WUHU21623XXSP,2013-08-27 02:32:00,
2013-08-26 21:37:00,72.9,65.4,29.85,SSE,164,0.0,0.0,77,0.00,,,0.00,WUHU21623XXSP,2013-08-27 02:37:00,
2013-08-26 21:42:00,72.3,65.1,29.85,SSE,157,0.0,0.0,78,0.00,,,0.00,WUHU21623XXSP,2013-08-27 02:42:00,
2013-08-26 21:47:00,71.8,64.9,29.85,SSE,157,0.0,0.0,79,0.00,,,0.00,WUHU21623XXSP,2013-08-27 02:47:00,
2013-08-26 21:52:00,71.4,65.3,29.85,SSE,164,0.0,0.0,81,0.00,,,0.00,WUHU21623XXSP,2013-08-27 02:52:00,
2013-08-26 21:57:00,72.1,65.3,29.85,SSE,157,0.0,0.0,79,0.00,,,0.00,WUHU21623XXSP,2013-08-27 02:57:00,
2013-08-26 22:02:00,72.5,65.6,29.85,SSE,157,0.0,0.0,79,0.00,,,0.00,WUHU21623XXSP,2013-08-27 03:02:00,
2013-08-26 22:07:00,71.4,65.3,29.85,SSE,164,0.0,0.0,81,0.00,,,0.00,WUHU21623XXSP,2013-08-27 03:07:00,
2013-08-26 22:12:00,71.2,65.1,29.84,SSE,164,0.0,0.0,81,0.00,,,0.00,WUHU21623XXSP,2013-08-27 03:12:00,
2013-08-26 22:17:00,71.1,65.3,29.84,South,180,0.0,0.0,82,0.00,,,0.00,WUHU21623XXSP,2013-08-27 03:17:00,
2013-08-26 22:22:00,70.5,65.1,29.84,SSE,164,0.0,0.0,83,0.00,,,0.00,WUHU21623XXSP,2013-08-27 03:22:00,
2013-08-26 22:27:00,70.5,65.1,29.84,SSE,157,0.0,0.0,83,0.00,,,0.00,WUHU21623XXSP,2013-08-27 03:27:00,
2013-08-26 22:32:00,70.0,64.5,29.85,SSE,157,0.0,0.0,83,0.00,,,0.00,WUHU21623XXSP,2013-08-27 03:32:00,
2013-08-26 22:37:00,69.8,64.7,29.85,SSE,157,0.0,0.0,84,0.00,,,0.00,WUHU21623XXSP,2013-08-27 03:37:00,
2013-08-26 22:42:00,70.2,65.0,29.86,SSE,157,0.0,0.0,84,0.00,,,0.00,WUHU21623XXSP,2013-08-27 03:42:00,
2013-08-26 22:47:00,70.3,64.9,29.86,SSE,157,0.0,0.0,83,0.00,,,0.00,WUHU21623XXSP,2013-08-27 03:47:00,
2013-08-26 22:52:00,70.0,64.9,29.85,SSE,157,0.0,0.0,84,0.00,,,0.00,WUHU21623XXSP,2013-08-27 03:52:00,
2013-08-26 22:57:00,70.2,64.7,29.85,South,180,0.0,2.0,83,0.00,,,0.00,WUHU21623XXSP,2013-08-27 03:57:00,
2013-08-26 23:01:00,69.4,64.7,29.85,SSW,202,0.0,2.0,85,0.00,,,0.00,WUHU21623XXSP,2013-08-27 04:01:00,
2013-08-26 23:06:00,68.9,64.5,29.85,SSW,202,0.0,0.0,86,0.00,,,0.00,WUHU21623XXSP,2013-08-27 04:06:00,
2013-08-26 23:11:00,68.7,64.7,29.84,SSW,202,0.0,0.0,87,0.00,,,0.00,WUHU21623XXSP,2013-08-27 04:11:00,
2013-08-26 23:16:00,68.7,64.7,29.85,SSW,202,0.0,0.0,87,0.00,,,0.00,WUHU21623XXSP,2013-08-27 04:16:00,
2013-08-26 23:21:00,68.9,64.8,29.84,SSE,157,0.0,0.0,87,0.00,,,0.00,WUHU21623XXSP,2013-08-27 04:21:00,
2013-08-26 23:26:00,68.7,64.7,29.84,SSE,157,0.0,0.0,87,0.00,,,0.00,WUHU21623XXSP,2013-08-27 04:26:00,
2013-08-26 23:31:00,68.7,64.7,29.85,SSE,157,0.0,0.0,87,0.00,,,0.00,WUHU21623XXSP,2013-08-27 04:31:00,
2013-08-26 23:36:00,68.5,64.5,29.85,SSE,157,0.0,0.0,87,0.00,,,0.00,WUHU21623XXSP,2013-08-27 04:36:00,
2013-08-26 23:41:00,68.5,64.5,29.85,South,180,0.0,1.1,87,0.00,,,0.00,WUHU21623XXSP,2013-08-27 04:41:00,
2013-08-26 23:46:00,68.4,64.3,29.85,South,180,0.0,1.1,87,0.00,,,0.00,WUHU21623XXSP,2013-08-27 04:46:00,
2013-08-26 23:51:00,68.4,64.3,29.85,South,180,0.0,1.6,87,0.00,,,0.00,WUHU21623XXSP,2013-08-27 04:51:00,
2013-08-26 23:56:00,68.4,64.3,29.84,SSW,202,0.0,1.6,87,0.00,,,0.00,WUHU21623XXSP,2013-08-27 04:56:00,